Weather History for North Adams, MA

Change the Weather History Date:

Thursday, April 18, 2013

  Actual Average Record
Temperature  
Mean Temperature 48 °F -  
Max Temperature 61 °F 57 °F 86 °F (2002)
Min Temperature 36 °F 34 °F 30 °F (2003)
Degree Days  
Heating Degree Days 16    
Moisture  
Dew Point 28 °F    
Average Humidity 43    
Maximum Humidity 76    
Minimum Humidity 26    
Precipitation  
Precipitation 0.00 in - - ()
Sea Level Pressure  
Sea Level Pressure 30.25 in    
Wind  
Wind Speed 10 mph (East)    
Max Wind Speed 21 mph    
Max Gust Speed 38 mph    
Visibility 10 miles    
Events      
Averages and records for this station are not official NWS values.
T = Trace of Precipitation, MM = Missing Value Source: NWS Daily Summary

Daily Weather History Graph

Daily Weather History Graph

Search for Another Location

Airport:

Trip Planner

Search our weather history database for the weather conditions in past years. The results will help you decide how hot, cold, wet, or windy it might be!

Date:

Astronomy

Apr. 18, 2013 Rise Set
Actual Time 6:06 AM EDT 7:38 PM EDT
Civil Twilight 5:36 AM EDT 8:08 PM EDT
Nautical Twilight 5:00 AM EDT 8:44 PM EDT
Astronomical Twilight 4:22 AM EDT 9:22 PM EDT
Moon 12:13 PM EDT 1:53 AM EDT
Length of Visible Light 14h 31m
Length of Day
13h 32m
First Quarter, 51% of the Moon is Illuminated
Apr 18
First Quarter
Apr 25
Full
May 2
Last Quarter
May 9
New
May 18
First Quarter

Hourly Weather History & Observations

Time (EDT) Temp. Windchill Dew Point Humidity Pressure Visibility Wind Dir Wind Speed Gust Speed Precip Events Conditions
12:52 AM 36.0 °F 33.3 °F 28.9 °F 76% 30.34 in 10.0 mi West 3.5 mph - N/A   Clear
1:52 AM 36.0 °F - 28.0 °F 73% 30.34 in 10.0 mi Calm Calm - N/A   Clear
2:52 AM 42.1 °F 37.7 °F 24.1 °F 49% 30.35 in 10.0 mi ENE 6.9 mph - N/A   Clear
3:52 AM 41.0 °F 36.4 °F 25.0 °F 53% 30.35 in 10.0 mi East 6.9 mph - N/A   Clear
4:52 AM 42.1 °F 36.6 °F 24.1 °F 49% 30.34 in 10.0 mi East 9.2 mph - N/A   Clear
5:52 AM 46.0 °F 39.3 °F 21.9 °F 39% 30.33 in 10.0 mi East 16.1 mph 25.3 mph N/A   Clear
6:52 AM 46.9 °F - 21.9 °F 37% 30.36 in 10.0 mi East 12.7 mph 25.3 mph N/A   Clear
7:52 AM 48.0 °F - 24.1 °F 39% 30.36 in 10.0 mi East 10.4 mph 20.7 mph N/A   Scattered Clouds
8:52 AM 48.9 °F - 25.0 °F 39% 30.35 in 10.0 mi ENE 10.4 mph 16.1 mph N/A   Overcast
9:52 AM 48.9 °F - 26.1 °F 41% 30.33 in 10.0 mi Variable 4.6 mph - N/A   Overcast
10:52 AM 54.0 °F - 25.0 °F 33% 30.32 in 10.0 mi SE 12.7 mph 21.9 mph N/A   Overcast
11:52 AM 55.9 °F - 26.1 °F 32% 30.30 in 10.0 mi ESE 12.7 mph 23.0 mph N/A   Overcast
12:52 PM 57.9 °F - 28.9 °F 33% 30.27 in 10.0 mi ESE 11.5 mph 23.0 mph N/A   Overcast
1:52 PM 60.1 °F - 28.0 °F 30% 30.25 in 10.0 mi SE 13.8 mph 23.0 mph N/A   Overcast
2:52 PM 61.0 °F - 26.1 °F 26% 30.23 in 10.0 mi ESE 19.6 mph 29.9 mph N/A   Overcast
3:52 PM 59.0 °F - 26.1 °F 28% 30.21 in 10.0 mi ESE 19.6 mph 27.6 mph N/A   Overcast
4:52 PM 57.9 °F - 26.1 °F 30% 30.19 in 10.0 mi ESE 20.7 mph 31.1 mph N/A   Overcast
5:52 PM 57.0 °F - 26.1 °F 30% 30.18 in 10.0 mi East 17.3 mph 38.0 mph N/A   Overcast
6:52 PM 55.9 °F - 26.1 °F 32% 30.16 in 10.0 mi ESE 16.1 mph 31.1 mph N/A   Overcast
7:52 PM 55.0 °F - 26.1 °F 33% 30.14 in 10.0 mi ESE 19.6 mph 33.4 mph N/A   Overcast
8:52 PM 54.0 °F - 33.1 °F 45% 30.13 in 10.0 mi East 20.7 mph 35.7 mph N/A   Overcast
9:48 PM 53.6 °F - 35.6 °F 51% 30.11 in 10.0 mi East 15.0 mph 28.8 mph N/A   Overcast
9:52 PM 53.1 °F - 37.0 °F 55% 30.12 in 10.0 mi East 15.0 mph 27.6 mph N/A   Overcast
10:52 PM 53.1 °F - 41.0 °F 64% 30.09 in 10.0 mi ENE 10.4 mph 18.4 mph N/A   Overcast
11:52 PM 53.1 °F - 43.0 °F 69% 30.07 in 10.0 mi East 9.2 mph - N/A   Overcast